Voltar ao catálogo

OPS 1117

TRANSIT 12

AtivoNavegaçãoPO
NORAD 2119·PAYLOAD·🇺🇸 United States

Lançado Mar 26, 1966 de Vandenberg Space Force Base

Loading…

Próximas Passagens (próximas 24 horas)

TLE

AtualizadoSource: Space-Track

Época: Sep 14, 2026, 11:04 UTC

1 02119U 66024A   26257.46141106  .00000120  00000-0  10276-3 0  9998
2 02119  89.5962  84.7135 0147579 136.1897 225.1089 13.75433353 27429

Acompanhe OPS 1117 em tempo real com AllMySat

Download on the App Store